Data supplied by UK-AIR on 5/4/2008
All Data GMT hour ending 
Status: R =Ratified P=Provisional,P*=As supplied
,,Lough Navar,,,,,,,,,,,,,,,,,,,,,,,
Date,time,"PM10 particulate matter (Hourly measured)",status,unit,"Ozone",status,unit
 
01-01-2005,01:00,13,R,ugm-3 (GRAV EQ),,,
01-01-2005,02:00,9,R,ugm-3 (GRAV EQ),48,R,ugm-3
01-01-2005,03:00,12,R,ugm-3 (GRAV EQ),54,R,ugm-3
01-01-2005,04:00,20,R,ugm-3 (GRAV EQ),70,R,ugm-3
01-01-2005,05:00,16,R,ugm-3 (GRAV EQ),66,R,ugm-3
01-01-2005,06:00,14,R,ugm-3 (GRAV EQ),70,R,ugm-3
01-01-2005,07:00,8,R,ugm-3 (GRAV EQ),78,R,ugm-3
01-01-2005,08:00,7,R,ugm-3 (GRAV EQ),80,R,ugm-3
01-01-2005,09:00,5,R,ugm-3 (GRAV EQ),76,R,ugm-3
01-01-2005,10:00,3,R,ugm-3 (GRAV EQ),74,R,ugm-3
01-01-2005,11:00,7,R,ugm-3 (GRAV EQ),74,R,ugm-3
01-01-2005,12:00,3,R,ugm-3 (GRAV EQ),82,R,ugm-3
01-01-2005,13:00,4,R,ugm-3 (GRAV EQ),86,R,ugm-3
01-01-2005,14:00,8,R,ugm-3 (GRAV EQ),82,R,ugm-3
01-01-2005,15:00,4,R,ugm-3 (GRAV EQ),82,R,ugm-3
01-01-2005,16:00,10,R,ugm-3 (GRAV EQ),82,R,ugm-3
01-01-2005,17:00,12,R,ugm-3 (GRAV EQ),82,R,ugm-3
01-01-2005,18:00,7,R,ugm-3 (GRAV EQ),84,R,ugm-3
01-01-2005,19:00,5,R,ugm-3 (GRAV EQ),84,R,ugm-3
01-01-2005,20:00,13,R,ugm-3 (GRAV EQ),90,R,ugm-3
01-01-2005,21:00,17,R,ugm-3 (GRAV EQ),84,R,ugm-3
01-01-2005,22:00,17,R,ugm-3 (GRAV EQ),82,R,ugm-3
01-01-2005,23:00,14,R,ugm-3 (GRAV EQ),84,R,ugm-3
01-01-2005,24:00,21,R,ugm-3 (GRAV EQ),84,R,ugm-3
02-01-2005,01:00,16,R,ugm-3 (GRAV EQ),84,R,ugm-3
02-01-2005,02:00,13,R,ugm-3 (GRAV EQ),78,R,ugm-3
02-01-2005,03:00,14,R,ugm-3 (GRAV EQ),78,R,ugm-3
02-01-2005,04:00,14,R,ugm-3 (GRAV EQ),76,R,ugm-3
02-01-2005,05:00,17,R,ugm-3 (GRAV EQ),78,R,ugm-3
02-01-2005,06:00,13,R,ugm-3 (GRAV EQ),78,R,ugm-3
02-01-2005,07:00,10,R,ugm-3 (GRAV EQ),78,R,ugm-3
02-01-2005,08:00,12,R,ugm-3 (GRAV EQ),80,R,ugm-3
02-01-2005,09:00,13,R,ugm-3 (GRAV EQ),76,R,ugm-3
02-01-2005,10:00,13,R,ugm-3 (GRAV EQ),76,R,ugm-3
02-01-2005,11:00,25,R,ugm-3 (GRAV EQ),76,R,ugm-3
02-01-2005,12:00,12,R,ugm-3 (GRAV EQ),76,R,ugm-3
02-01-2005,13:00,12,R,ugm-3 (GRAV EQ),74,R,ugm-3
02-01-2005,14:00,17,R,ugm-3 (GRAV EQ),72,R,ugm-3
02-01-2005,15:00,18,R,ugm-3 (GRAV EQ),70,R,ugm-3
02-01-2005,16:00,21,R,ugm-3 (GRAV EQ),70,R,ugm-3
02-01-2005,17:00,20,R,ugm-3 (GRAV EQ),68,R,ugm-3
02-01-2005,18:00,13,R,ugm-3 (GRAV EQ),68,R,ugm-3
02-01-2005,19:00,12,R,ugm-3 (GRAV EQ),66,R,ugm-3
02-01-2005,20:00,13,R,ugm-3 (GRAV EQ),70,R,ugm-3
02-01-2005,21:00,9,R,ugm-3 (GRAV EQ),78,R,ugm-3
02-01-2005,22:00,16,R,ugm-3 (GRAV EQ),76,R,ugm-3
02-01-2005,23:00,17,R,ugm-3 (GRAV EQ),76,R,ugm-3
02-01-2005,24:00,14,R,ugm-3 (GRAV EQ),82,R,ugm-3
03-01-2005,01:00,23,R,ugm-3 (GRAV EQ),78,R,ugm-3
03-01-2005,02:00,16,R,ugm-3 (GRAV EQ),74,R,ugm-3
03-01-2005,03:00,16,R,ugm-3 (GRAV EQ),72,R,ugm-3
03-01-2005,04:00,12,R,ugm-3 (GRAV EQ),72,R,ugm-3
03-01-2005,05:00,7,R,ugm-3 (GRAV EQ),66,R,ugm-3
03-01-2005,06:00,8,R,ugm-3 (GRAV EQ),66,R,ugm-3
03-01-2005,07:00,7,R,ugm-3 (GRAV EQ),64,R,ugm-3
03-01-2005,08:00,5,R,ugm-3 (GRAV EQ),66,R,ugm-3
03-01-2005,09:00,7,R,ugm-3 (GRAV EQ),66,R,ugm-3
03-01-2005,10:00,9,R,ugm-3 (GRAV EQ),66,R,ugm-3
03-01-2005,11:00,21,R,ugm-3 (GRAV EQ),70,R,ugm-3
03-01-2005,12:00,13,R,ugm-3 (GRAV EQ),72,R,ugm-3
03-01-2005,13:00,12,R,ugm-3 (GRAV EQ),74,R,ugm-3
03-01-2005,14:00,12,R,ugm-3 (GRAV EQ),76,R,ugm-3
03-01-2005,15:00,9,R,ugm-3 (GRAV EQ),74,R,ugm-3
03-01-2005,16:00,13,R,ugm-3 (GRAV EQ),74,R,ugm-3
03-01-2005,17:00,14,R,ugm-3 (GRAV EQ),78,R,ugm-3
03-01-2005,18:00,12,R,ugm-3 (GRAV EQ),78,R,ugm-3
03-01-2005,19:00,9,R,ugm-3 (GRAV EQ),80,R,ugm-3
03-01-2005,20:00,5,R,ugm-3 (GRAV EQ),80,R,ugm-3
03-01-2005,21:00,4,R,ugm-3 (GRAV EQ),76,R,ugm-3
03-01-2005,22:00,9,R,ugm-3 (GRAV EQ),76,R,ugm-3
03-01-2005,23:00,8,R,ugm-3 (GRAV EQ),78,R,ugm-3
03-01-2005,24:00,9,R,ugm-3 (GRAV EQ),78,R,ugm-3
04-01-2005,01:00,10,R,ugm-3 (GRAV EQ),78,R,ugm-3
04-01-2005,02:00,5,R,ugm-3 (GRAV EQ),78,R,ugm-3
04-01-2005,03:00,7,R,ugm-3 (GRAV EQ),78,R,ugm-3
04-01-2005,04:00,7,R,ugm-3 (GRAV EQ),74,R,ugm-3
04-01-2005,05:00,9,R,ugm-3 (GRAV EQ),90,R,ugm-3
04-01-2005,06:00,4,R,ugm-3 (GRAV EQ),82,R,ugm-3
04-01-2005,07:00,4,R,ugm-3 (GRAV EQ),78,R,ugm-3
04-01-2005,08:00,9,R,ugm-3 (GRAV EQ),78,R,ugm-3
04-01-2005,09:00,13,R,ugm-3 (GRAV EQ),76,R,ugm-3
04-01-2005,10:00,16,R,ugm-3 (GRAV EQ),74,R,ugm-3
04-01-2005,11:00,12,R,ugm-3 (GRAV EQ),74,R,ugm-3
04-01-2005,12:00,13,R,ugm-3 (GRAV EQ),70,R,ugm-3
04-01-2005,13:00,14,R,ugm-3 (GRAV EQ),72,R,ugm-3
04-01-2005,14:00,16,R,ugm-3 (GRAV EQ),70,R,ugm-3
04-01-2005,15:00,13,R,ugm-3 (GRAV EQ),72,R,ugm-3
04-01-2005,16:00,12,R,ugm-3 (GRAV EQ),68,R,ugm-3
04-01-2005,17:00,9,R,ugm-3 (GRAV EQ),64,R,ugm-3
04-01-2005,18:00,8,R,ugm-3 (GRAV EQ),60,R,ugm-3
04-01-2005,19:00,,,,,,
04-01-2005,20:00,4,R,ugm-3 (GRAV EQ),50,R,ugm-3
04-01-2005,21:00,8,R,ugm-3 (GRAV EQ),54,R,ugm-3
04-01-2005,22:00,9,R,ugm-3 (GRAV EQ),52,R,ugm-3
04-01-2005,23:00,10,R,ugm-3 (GRAV EQ),56,R,ugm-3
04-01-2005,24:00,10,R,ugm-3 (GRAV EQ),58,R,ugm-3
05-01-2005,01:00,9,R,ugm-3 (GRAV EQ),58,R,ugm-3
05-01-2005,02:00,10,R,ugm-3 (GRAV EQ),60,R,ugm-3
05-01-2005,03:00,8,R,ugm-3 (GRAV EQ),58,R,ugm-3
05-01-2005,04:00,5,R,ugm-3 (GRAV EQ),60,R,ugm-3
05-01-2005,05:00,5,R,ugm-3 (GRAV EQ),60,R,ugm-3
05-01-2005,06:00,7,R,ugm-3 (GRAV EQ),62,R,ugm-3
05-01-2005,07:00,7,R,ugm-3 (GRAV EQ),66,R,ugm-3
05-01-2005,08:00,5,R,ugm-3 (GRAV EQ),66,R,ugm-3
05-01-2005,09:00,5,R,ugm-3 (GRAV EQ),70,R,ugm-3
05-01-2005,10:00,4,R,ugm-3 (GRAV EQ),72,R,ugm-3
05-01-2005,11:00,10,R,ugm-3 (GRAV EQ),74,R,ugm-3
05-01-2005,12:00,5,R,ugm-3 (GRAV EQ),78,R,ugm-3
05-01-2005,13:00,8,R,ugm-3 (GRAV EQ),72,R,ugm-3
05-01-2005,14:00,20,R,ugm-3 (GRAV EQ),72,R,ugm-3
05-01-2005,15:00,21,R,ugm-3 (GRAV EQ),72,R,ugm-3
05-01-2005,16:00,18,R,ugm-3 (GRAV EQ),68,R,ugm-3
05-01-2005,17:00,14,R,ugm-3 (GRAV EQ),72,R,ugm-3
05-01-2005,18:00,18,R,ugm-3 (GRAV EQ),74,R,ugm-3
05-01-2005,19:00,20,R,ugm-3 (GRAV EQ),74,R,ugm-3
05-01-2005,20:00,18,R,ugm-3 (GRAV EQ),70,R,ugm-3
05-01-2005,21:00,13,R,ugm-3 (GRAV EQ),68,R,ugm-3
05-01-2005,22:00,16,R,ugm-3 (GRAV EQ),64,R,ugm-3
05-01-2005,23:00,14,R,ugm-3 (GRAV EQ),68,R,ugm-3
05-01-2005,24:00,9,R,ugm-3 (GRAV EQ),52,R,ugm-3
06-01-2005,01:00,10,R,ugm-3 (GRAV EQ),60,R,ugm-3
06-01-2005,02:00,14,R,ugm-3 (GRAV EQ),58,R,ugm-3
06-01-2005,03:00,9,R,ugm-3 (GRAV EQ),56,R,ugm-3
06-01-2005,04:00,10,R,ugm-3 (GRAV EQ),62,R,ugm-3
06-01-2005,05:00,9,R,ugm-3 (GRAV EQ),62,R,ugm-3
06-01-2005,06:00,10,R,ugm-3 (GRAV EQ),58,R,ugm-3
06-01-2005,07:00,13,R,ugm-3 (GRAV EQ),60,R,ugm-3
06-01-2005,08:00,10,R,ugm-3 (GRAV EQ),60,R,ugm-3
06-01-2005,09:00,10,R,ugm-3 (GRAV EQ),62,R,ugm-3
06-01-2005,10:00,10,R,ugm-3 (GRAV EQ),70,R,ugm-3
06-01-2005,11:00,14,R,ugm-3 (GRAV EQ),72,R,ugm-3
06-01-2005,12:00,7,R,ugm-3 (GRAV EQ),76,R,ugm-3
06-01-2005,13:00,7,R,ugm-3 (GRAV EQ),78,R,ugm-3
06-01-2005,14:00,8,R,ugm-3 (GRAV EQ),76,R,ugm-3
06-01-2005,15:00,7,R,ugm-3 (GRAV EQ),74,R,ugm-3
06-01-2005,16:00,14,R,ugm-3 (GRAV EQ),74,R,ugm-3
06-01-2005,17:00,9,R,ugm-3 (GRAV EQ),74,R,ugm-3
06-01-2005,18:00,5,R,ugm-3 (GRAV EQ),74,R,ugm-3
06-01-2005,19:00,5,R,ugm-3 (GRAV EQ),76,R,ugm-3
06-01-2005,20:00,0,R,ugm-3 (GRAV EQ),76,R,ugm-3
06-01-2005,21:00,3,R,ugm-3 (GRAV EQ),76,R,ugm-3
06-01-2005,22:00,4,R,ugm-3 (GRAV EQ),76,R,ugm-3
06-01-2005,23:00,5,R,ugm-3 (GRAV EQ),76,R,ugm-3
06-01-2005,24:00,5,R,ugm-3 (GRAV EQ),76,R,ugm-3
07-01-2005,01:00,5,R,ugm-3 (GRAV EQ),76,R,ugm-3
07-01-2005,02:00,4,R,ugm-3 (GRAV EQ),76,R,ugm-3
07-01-2005,03:00,3,R,ugm-3 (GRAV EQ),76,R,ugm-3
07-01-2005,04:00,4,R,ugm-3 (GRAV EQ),74,R,ugm-3
07-01-2005,05:00,5,R,ugm-3 (GRAV EQ),72,R,ugm-3
07-01-2005,06:00,5,R,ugm-3 (GRAV EQ),76,R,ugm-3
07-01-2005,07:00,4,R,ugm-3 (GRAV EQ),80,R,ugm-3
07-01-2005,08:00,7,R,ugm-3 (GRAV EQ),82,R,ugm-3
07-01-2005,09:00,12,R,ugm-3 (GRAV EQ),82,R,ugm-3
07-01-2005,10:00,10,R,ugm-3 (GRAV EQ),76,R,ugm-3
07-01-2005,11:00,8,R,ugm-3 (GRAV EQ),78,R,ugm-3
07-01-2005,12:00,5,R,ugm-3 (GRAV EQ),78,R,ugm-3
07-01-2005,13:00,5,R,ugm-3 (GRAV EQ),76,R,ugm-3
07-01-2005,14:00,5,R,ugm-3 (GRAV EQ),70,R,ugm-3
07-01-2005,15:00,3,R,ugm-3 (GRAV EQ),72,R,ugm-3
07-01-2005,16:00,4,R,ugm-3 (GRAV EQ),74,R,ugm-3
07-01-2005,17:00,10,R,ugm-3 (GRAV EQ),72,R,ugm-3
07-01-2005,18:00,4,R,ugm-3 (GRAV EQ),66,R,ugm-3
07-01-2005,19:00,0,R,ugm-3 (GRAV EQ),68,R,ugm-3
07-01-2005,20:00,-1,R,ugm-3 (GRAV EQ),70,R,ugm-3
07-01-2005,21:00,1,R,ugm-3 (GRAV EQ),68,R,ugm-3
07-01-2005,22:00,,,,84,R,ugm-3
07-01-2005,23:00,0,R,ugm-3 (GRAV EQ),80,R,ugm-3
07-01-2005,24:00,0,R,ugm-3 (GRAV EQ),68,R,ugm-3
08-01-2005,01:00,-1,R,ugm-3 (GRAV EQ),58,R,ugm-3
08-01-2005,02:00,-3,R,ugm-3 (GRAV EQ),70,R,ugm-3
08-01-2005,03:00,-3,R,ugm-3 (GRAV EQ),86,R,ugm-3
08-01-2005,04:00,12,R,ugm-3 (GRAV EQ),88,R,ugm-3
08-01-2005,05:00,18,R,ugm-3 (GRAV EQ),90,R,ugm-3
08-01-2005,06:00,17,R,ugm-3 (GRAV EQ),82,R,ugm-3
08-01-2005,07:00,14,R,ugm-3 (GRAV EQ),82,R,ugm-3
08-01-2005,08:00,16,R,ugm-3 (GRAV EQ),84,R,ugm-3
08-01-2005,09:00,13,R,ugm-3 (GRAV EQ),80,R,ugm-3
08-01-2005,10:00,17,R,ugm-3 (GRAV EQ),80,R,ugm-3
08-01-2005,11:00,13,R,ugm-3 (GRAV EQ),80,R,ugm-3
08-01-2005,12:00,9,R,ugm-3 (GRAV EQ),80,R,ugm-3
08-01-2005,13:00,8,R,ugm-3 (GRAV EQ),78,R,ugm-3
08-01-2005,14:00,14,R,ugm-3 (GRAV EQ),78,R,ugm-3
08-01-2005,15:00,13,R,ugm-3 (GRAV EQ),76,R,ugm-3
08-01-2005,16:00,12,R,ugm-3 (GRAV EQ),70,R,ugm-3
08-01-2005,17:00,20,R,ugm-3 (GRAV EQ),68,R,ugm-3
08-01-2005,18:00,16,R,ugm-3 (GRAV EQ),68,R,ugm-3
08-01-2005,19:00,7,R,ugm-3 (GRAV EQ),74,R,ugm-3
08-01-2005,20:00,7,R,ugm-3 (GRAV EQ),72,R,ugm-3
08-01-2005,21:00,8,R,ugm-3 (GRAV EQ),74,R,ugm-3
08-01-2005,22:00,8,R,ugm-3 (GRAV EQ),82,R,ugm-3
08-01-2005,23:00,8,R,ugm-3 (GRAV EQ),82,R,ugm-3
08-01-2005,24:00,8,R,ugm-3 (GRAV EQ),80,R,ugm-3
09-01-2005,01:00,8,R,ugm-3 (GRAV EQ),74,R,ugm-3
09-01-2005,02:00,8,R,ugm-3 (GRAV EQ),68,R,ugm-3
09-01-2005,03:00,8,R,ugm-3 (GRAV EQ),70,R,ugm-3
09-01-2005,04:00,8,R,ugm-3 (GRAV EQ),74,R,ugm-3
09-01-2005,05:00,7,R,ugm-3 (GRAV EQ),76,R,ugm-3
09-01-2005,06:00,8,R,ugm-3 (GRAV EQ),76,R,ugm-3
09-01-2005,07:00,16,R,ugm-3 (GRAV EQ),76,R,ugm-3
09-01-2005,08:00,12,R,ugm-3 (GRAV EQ),76,R,ugm-3
09-01-2005,09:00,9,R,ugm-3 (GRAV EQ),72,R,ugm-3
09-01-2005,10:00,9,R,ugm-3 (GRAV EQ),72,R,ugm-3
09-01-2005,11:00,10,R,ugm-3 (GRAV EQ),74,R,ugm-3
09-01-2005,12:00,3,R,ugm-3 (GRAV EQ),74,R,ugm-3
09-01-2005,13:00,3,R,ugm-3 (GRAV EQ),74,R,ugm-3
09-01-2005,14:00,3,R,ugm-3 (GRAV EQ),72,R,ugm-3
09-01-2005,15:00,3,R,ugm-3 (GRAV EQ),70,R,ugm-3
09-01-2005,16:00,4,R,ugm-3 (GRAV EQ),68,R,ugm-3
09-01-2005,17:00,5,R,ugm-3 (GRAV EQ),66,R,ugm-3
09-01-2005,18:00,5,R,ugm-3 (GRAV EQ),62,R,ugm-3
09-01-2005,19:00,5,R,ugm-3 (GRAV EQ),70,R,ugm-3
09-01-2005,20:00,5,R,ugm-3 (GRAV EQ),74,R,ugm-3
09-01-2005,21:00,5,R,ugm-3 (GRAV EQ),80,R,ugm-3
09-01-2005,22:00,9,R,ugm-3 (GRAV EQ),82,R,ugm-3
09-01-2005,23:00,18,R,ugm-3 (GRAV EQ),84,R,ugm-3
09-01-2005,24:00,12,R,ugm-3 (GRAV EQ),86,R,ugm-3
10-01-2005,01:00,16,R,ugm-3 (GRAV EQ),82,R,ugm-3
10-01-2005,02:00,16,R,ugm-3 (GRAV EQ),82,R,ugm-3
10-01-2005,03:00,17,R,ugm-3 (GRAV EQ),82,R,ugm-3
10-01-2005,04:00,12,R,ugm-3 (GRAV EQ),78,R,ugm-3
10-01-2005,05:00,14,R,ugm-3 (GRAV EQ),84,R,ugm-3
10-01-2005,06:00,17,R,ugm-3 (GRAV EQ),82,R,ugm-3
10-01-2005,07:00,18,R,ugm-3 (GRAV EQ),84,R,ugm-3
10-01-2005,08:00,16,R,ugm-3 (GRAV EQ),82,R,ugm-3
10-01-2005,09:00,14,R,ugm-3 (GRAV EQ),78,R,ugm-3
10-01-2005,10:00,17,R,ugm-3 (GRAV EQ),76,R,ugm-3
10-01-2005,11:00,18,R,ugm-3 (GRAV EQ),70,R,ugm-3
10-01-2005,12:00,13,R,ugm-3 (GRAV EQ),72,R,ugm-3
10-01-2005,13:00,12,R,ugm-3 (GRAV EQ),74,R,ugm-3
10-01-2005,14:00,9,R,ugm-3 (GRAV EQ),76,R,ugm-3
10-01-2005,15:00,12,R,ugm-3 (GRAV EQ),74,R,ugm-3
10-01-2005,16:00,10,R,ugm-3 (GRAV EQ),74,R,ugm-3
10-01-2005,17:00,10,R,ugm-3 (GRAV EQ),74,R,ugm-3
10-01-2005,18:00,12,R,ugm-3 (GRAV EQ),74,R,ugm-3
10-01-2005,19:00,13,R,ugm-3 (GRAV EQ),78,R,ugm-3
10-01-2005,20:00,12,R,ugm-3 (GRAV EQ),78,R,ugm-3
10-01-2005,21:00,14,R,ugm-3 (GRAV EQ),76,R,ugm-3
10-01-2005,22:00,16,R,ugm-3 (GRAV EQ),76,R,ugm-3
10-01-2005,23:00,13,R,ugm-3 (GRAV EQ),74,R,ugm-3
10-01-2005,24:00,14,R,ugm-3 (GRAV EQ),70,R,ugm-3
11-01-2005,01:00,12,R,ugm-3 (GRAV EQ),72,R,ugm-3
11-01-2005,02:00,10,R,ugm-3 (GRAV EQ),68,R,ugm-3
11-01-2005,03:00,10,R,ugm-3 (GRAV EQ),72,R,ugm-3
11-01-2005,04:00,10,R,ugm-3 (GRAV EQ),76,R,ugm-3
11-01-2005,05:00,9,R,ugm-3 (GRAV EQ),76,R,ugm-3
11-01-2005,06:00,8,R,ugm-3 (GRAV EQ),76,R,ugm-3
11-01-2005,07:00,5,R,ugm-3 (GRAV EQ),80,R,ugm-3
11-01-2005,08:00,7,R,ugm-3 (GRAV EQ),80,R,ugm-3
11-01-2005,09:00,5,R,ugm-3 (GRAV EQ),82,R,ugm-3
11-01-2005,10:00,7,R,ugm-3 (GRAV EQ),80,R,ugm-3
11-01-2005,11:00,7,R,ugm-3 (GRAV EQ),78,R,ugm-3
11-01-2005,12:00,9,R,ugm-3 (GRAV EQ),80,R,ugm-3
11-01-2005,13:00,20,R,ugm-3 (GRAV EQ),78,R,ugm-3
11-01-2005,14:00,10,R,ugm-3 (GRAV EQ),82,R,ugm-3
11-01-2005,15:00,13,R,ugm-3 (GRAV EQ),80,R,ugm-3
11-01-2005,16:00,16,R,ugm-3 (GRAV EQ),80,R,ugm-3
11-01-2005,17:00,13,R,ugm-3 (GRAV EQ),78,R,ugm-3
11-01-2005,18:00,17,R,ugm-3 (GRAV EQ),76,R,ugm-3
11-01-2005,19:00,12,R,ugm-3 (GRAV EQ),78,R,ugm-3
11-01-2005,20:00,18,R,ugm-3 (GRAV EQ),78,R,ugm-3
11-01-2005,21:00,9,R,ugm-3 (GRAV EQ),78,R,ugm-3
11-01-2005,22:00,9,R,ugm-3 (GRAV EQ),80,R,ugm-3
11-01-2005,23:00,5,R,ugm-3 (GRAV EQ),78,R,ugm-3
11-01-2005,24:00,13,R,ugm-3 (GRAV EQ),76,R,ugm-3
12-01-2005,01:00,10,R,ugm-3 (GRAV EQ),78,R,ugm-3
12-01-2005,02:00,8,R,ugm-3 (GRAV EQ),76,R,ugm-3
12-01-2005,03:00,12,R,ugm-3 (GRAV EQ),78,R,ugm-3
12-01-2005,04:00,7,R,ugm-3 (GRAV EQ),84,R,ugm-3
12-01-2005,05:00,5,R,ugm-3 (GRAV EQ),78,R,ugm-3
12-01-2005,06:00,14,R,ugm-3 (GRAV EQ),80,R,ugm-3
12-01-2005,07:00,16,R,ugm-3 (GRAV EQ),80,R,ugm-3
12-01-2005,08:00,23,R,ugm-3 (GRAV EQ),80,R,ugm-3
12-01-2005,09:00,17,R,ugm-3 (GRAV EQ),82,R,ugm-3
12-01-2005,10:00,16,R,ugm-3 (GRAV EQ),78,R,ugm-3
12-01-2005,11:00,17,R,ugm-3 (GRAV EQ),74,R,ugm-3
12-01-2005,12:00,,,,,,
12-01-2005,13:00,5,R,ugm-3 (GRAV EQ),80,R,ugm-3
12-01-2005,14:00,18,R,ugm-3 (GRAV EQ),80,R,ugm-3
12-01-2005,15:00,13,R,ugm-3 (GRAV EQ),82,R,ugm-3
12-01-2005,16:00,8,R,ugm-3 (GRAV EQ),82,R,ugm-3
12-01-2005,17:00,13,R,ugm-3 (GRAV EQ),74,R,ugm-3
12-01-2005,18:00,18,R,ugm-3 (GRAV EQ),68,R,ugm-3
12-01-2005,19:00,17,R,ugm-3 (GRAV EQ),66,R,ugm-3
12-01-2005,20:00,18,R,ugm-3 (GRAV EQ),68,R,ugm-3
12-01-2005,21:00,18,R,ugm-3 (GRAV EQ),76,R,ugm-3
12-01-2005,22:00,17,R,ugm-3 (GRAV EQ),78,R,ugm-3
12-01-2005,23:00,17,R,ugm-3 (GRAV EQ),72,R,ugm-3
12-01-2005,24:00,14,R,ugm-3 (GRAV EQ),78,R,ugm-3
13-01-2005,01:00,13,R,ugm-3 (GRAV EQ),66,R,ugm-3
13-01-2005,02:00,16,R,ugm-3 (GRAV EQ),60,R,ugm-3
13-01-2005,03:00,9,R,ugm-3 (GRAV EQ),40,R,ugm-3
13-01-2005,04:00,9,R,ugm-3 (GRAV EQ),46,R,ugm-3
13-01-2005,05:00,8,R,ugm-3 (GRAV EQ),36,R,ugm-3
13-01-2005,06:00,8,R,ugm-3 (GRAV EQ),30,R,ugm-3
13-01-2005,07:00,7,R,ugm-3 (GRAV EQ),28,R,ugm-3
13-01-2005,08:00,7,R,ugm-3 (GRAV EQ),30,R,ugm-3
13-01-2005,09:00,7,R,ugm-3 (GRAV EQ),28,R,ugm-3
13-01-2005,10:00,10,R,ugm-3 (GRAV EQ),20,R,ugm-3
13-01-2005,11:00,21,R,ugm-3 (GRAV EQ),20,R,ugm-3
13-01-2005,12:00,9,R,ugm-3 (GRAV EQ),36,R,ugm-3
13-01-2005,13:00,7,R,ugm-3 (GRAV EQ),36,R,ugm-3
13-01-2005,14:00,8,R,ugm-3 (GRAV EQ),46,R,ugm-3
13-01-2005,15:00,8,R,ugm-3 (GRAV EQ),32,R,ugm-3
13-01-2005,16:00,8,R,ugm-3 (GRAV EQ),28,R,ugm-3
13-01-2005,17:00,9,R,ugm-3 (GRAV EQ),28,R,ugm-3
13-01-2005,18:00,16,R,ugm-3 (GRAV EQ),32,R,ugm-3
13-01-2005,19:00,13,R,ugm-3 (GRAV EQ),46,R,ugm-3
13-01-2005,20:00,14,R,ugm-3 (GRAV EQ),42,R,ugm-3
13-01-2005,21:00,13,R,ugm-3 (GRAV EQ),54,R,ugm-3
13-01-2005,22:00,13,R,ugm-3 (GRAV EQ),58,R,ugm-3
13-01-2005,23:00,13,R,ugm-3 (GRAV EQ),64,R,ugm-3
13-01-2005,24:00,13,R,ugm-3 (GRAV EQ),66,R,ugm-3
14-01-2005,01:00,10,R,ugm-3 (GRAV EQ),68,R,ugm-3
14-01-2005,02:00,10,R,ugm-3 (GRAV EQ),72,R,ugm-3
14-01-2005,03:00,12,R,ugm-3 (GRAV EQ),72,R,ugm-3
14-01-2005,04:00,13,R,ugm-3 (GRAV EQ),70,R,ugm-3
14-01-2005,05:00,16,R,ugm-3 (GRAV EQ),70,R,ugm-3
14-01-2005,06:00,14,R,ugm-3 (GRAV EQ),70,R,ugm-3
14-01-2005,07:00,9,R,ugm-3 (GRAV EQ),68,R,ugm-3
14-01-2005,08:00,3,R,ugm-3 (GRAV EQ),64,R,ugm-3
14-01-2005,09:00,7,R,ugm-3 (GRAV EQ),64,R,ugm-3
14-01-2005,10:00,8,R,ugm-3 (GRAV EQ),64,R,ugm-3
14-01-2005,11:00,7,R,ugm-3 (GRAV EQ),64,R,ugm-3
14-01-2005,12:00,7,R,ugm-3 (GRAV EQ),64,R,ugm-3
14-01-2005,13:00,7,R,ugm-3 (GRAV EQ),60,R,ugm-3
14-01-2005,14:00,5,R,ugm-3 (GRAV EQ),56,R,ugm-3
14-01-2005,15:00,4,R,ugm-3 (GRAV EQ),54,R,ugm-3
14-01-2005,16:00,4,R,ugm-3 (GRAV EQ),56,R,ugm-3
14-01-2005,17:00,4,R,ugm-3 (GRAV EQ),54,R,ugm-3
14-01-2005,18:00,5,R,ugm-3 (GRAV EQ),52,R,ugm-3
14-01-2005,19:00,5,R,ugm-3 (GRAV EQ),52,R,ugm-3
14-01-2005,20:00,4,R,ugm-3 (GRAV EQ),52,R,ugm-3
14-01-2005,21:00,5,R,ugm-3 (GRAV EQ),60,R,ugm-3
14-01-2005,22:00,3,R,ugm-3 (GRAV EQ),70,R,ugm-3
14-01-2005,23:00,7,R,ugm-3 (GRAV EQ),74,R,ugm-3
14-01-2005,24:00,7,R,ugm-3 (GRAV EQ),70,R,ugm-3
15-01-2005,01:00,7,R,ugm-3 (GRAV EQ),68,R,ugm-3
15-01-2005,02:00,9,R,ugm-3 (GRAV EQ),68,R,ugm-3
15-01-2005,03:00,13,R,ugm-3 (GRAV EQ),68,R,ugm-3
15-01-2005,04:00,14,R,ugm-3 (GRAV EQ),70,R,ugm-3
15-01-2005,05:00,12,R,ugm-3 (GRAV EQ),68,R,ugm-3
15-01-2005,06:00,10,R,ugm-3 (GRAV EQ),70,R,ugm-3
15-01-2005,07:00,13,R,ugm-3 (GRAV EQ),70,R,ugm-3
15-01-2005,08:00,16,R,ugm-3 (GRAV EQ),72,R,ugm-3
15-01-2005,09:00,12,R,ugm-3 (GRAV EQ),70,R,ugm-3
15-01-2005,10:00,10,R,ugm-3 (GRAV EQ),68,R,ugm-3
15-01-2005,11:00,13,R,ugm-3 (GRAV EQ),68,R,ugm-3
15-01-2005,12:00,10,R,ugm-3 (GRAV EQ),68,R,ugm-3
15-01-2005,13:00,9,R,ugm-3 (GRAV EQ),66,R,ugm-3
15-01-2005,14:00,9,R,ugm-3 (GRAV EQ),64,R,ugm-3
15-01-2005,15:00,12,R,ugm-3 (GRAV EQ),58,R,ugm-3
15-01-2005,16:00,10,R,ugm-3 (GRAV EQ),54,R,ugm-3
15-01-2005,17:00,9,R,ugm-3 (GRAV EQ),62,R,ugm-3
15-01-2005,18:00,9,R,ugm-3 (GRAV EQ),68,R,ugm-3
15-01-2005,19:00,9,R,ugm-3 (GRAV EQ),68,R,ugm-3
15-01-2005,20:00,14,R,ugm-3 (GRAV EQ),68,R,ugm-3
15-01-2005,21:00,16,R,ugm-3 (GRAV EQ),68,R,ugm-3
15-01-2005,22:00,17,R,ugm-3 (GRAV EQ),68,R,ugm-3
15-01-2005,23:00,14,R,ugm-3 (GRAV EQ),68,R,ugm-3
15-01-2005,24:00,14,R,ugm-3 (GRAV EQ),66,R,ugm-3
16-01-2005,01:00,12,R,ugm-3 (GRAV EQ),66,R,ugm-3
16-01-2005,02:00,14,R,ugm-3 (GRAV EQ),64,R,ugm-3
16-01-2005,03:00,12,R,ugm-3 (GRAV EQ),64,R,ugm-3
16-01-2005,04:00,7,R,ugm-3 (GRAV EQ),66,R,ugm-3
16-01-2005,05:00,9,R,ugm-3 (GRAV EQ),62,R,ugm-3
16-01-2005,06:00,7,R,ugm-3 (GRAV EQ),62,R,ugm-3
16-01-2005,07:00,5,R,ugm-3 (GRAV EQ),60,R,ugm-3
16-01-2005,08:00,3,R,ugm-3 (GRAV EQ),66,R,ugm-3
16-01-2005,09:00,3,R,ugm-3 (GRAV EQ),64,R,ugm-3
16-01-2005,10:00,10,R,ugm-3 (GRAV EQ),62,R,ugm-3
16-01-2005,11:00,21,R,ugm-3 (GRAV EQ),64,R,ugm-3
16-01-2005,12:00,5,R,ugm-3 (GRAV EQ),68,R,ugm-3
16-01-2005,13:00,7,R,ugm-3 (GRAV EQ),70,R,ugm-3
16-01-2005,14:00,8,R,ugm-3 (GRAV EQ),70,R,ugm-3
16-01-2005,15:00,9,R,ugm-3 (GRAV EQ),68,R,ugm-3
16-01-2005,16:00,10,R,ugm-3 (GRAV EQ),72,R,ugm-3
16-01-2005,17:00,8,R,ugm-3 (GRAV EQ),70,R,ugm-3
16-01-2005,18:00,7,R,ugm-3 (GRAV EQ),72,R,ugm-3
16-01-2005,19:00,5,R,ugm-3 (GRAV EQ),72,R,ugm-3
16-01-2005,20:00,5,R,ugm-3 (GRAV EQ),72,R,ugm-3
16-01-2005,21:00,4,R,ugm-3 (GRAV EQ),72,R,ugm-3
16-01-2005,22:00,4,R,ugm-3 (GRAV EQ),68,R,ugm-3
16-01-2005,23:00,3,R,ugm-3 (GRAV EQ),64,R,ugm-3
16-01-2005,24:00,4,R,ugm-3 (GRAV EQ),64,R,ugm-3
17-01-2005,01:00,5,R,ugm-3 (GRAV EQ),68,R,ugm-3
17-01-2005,02:00,5,R,ugm-3 (GRAV EQ),64,R,ugm-3
17-01-2005,03:00,3,R,ugm-3 (GRAV EQ),78,R,ugm-3
17-01-2005,04:00,3,R,ugm-3 (GRAV EQ),80,R,ugm-3
17-01-2005,05:00,5,R,ugm-3 (GRAV EQ),82,R,ugm-3
17-01-2005,06:00,4,R,ugm-3 (GRAV EQ),78,R,ugm-3
17-01-2005,07:00,4,R,ugm-3 (GRAV EQ),78,R,ugm-3
17-01-2005,08:00,3,R,ugm-3 (GRAV EQ),84,R,ugm-3
17-01-2005,09:00,5,R,ugm-3 (GRAV EQ),84,R,ugm-3
17-01-2005,10:00,10,R,ugm-3 (GRAV EQ),78,R,ugm-3
17-01-2005,11:00,14,R,ugm-3 (GRAV EQ),82,R,ugm-3
17-01-2005,12:00,7,R,ugm-3 (GRAV EQ),82,R,ugm-3
17-01-2005,13:00,7,R,ugm-3 (GRAV EQ),82,R,ugm-3
17-01-2005,14:00,10,R,ugm-3 (GRAV EQ),82,R,ugm-3
17-01-2005,15:00,7,R,ugm-3 (GRAV EQ),82,R,ugm-3
17-01-2005,16:00,5,R,ugm-3 (GRAV EQ),80,R,ugm-3
17-01-2005,17:00,9,R,ugm-3 (GRAV EQ),76,R,ugm-3
17-01-2005,18:00,0,R,ugm-3 (GRAV EQ),76,R,ugm-3
17-01-2005,19:00,4,R,ugm-3 (GRAV EQ),78,R,ugm-3
17-01-2005,20:00,3,R,ugm-3 (GRAV EQ),78,R,ugm-3
17-01-2005,21:00,4,R,ugm-3 (GRAV EQ),76,R,ugm-3
17-01-2005,22:00,1,R,ugm-3 (GRAV EQ),80,R,ugm-3
17-01-2005,23:00,1,R,ugm-3 (GRAV EQ),80,R,ugm-3
17-01-2005,24:00,4,R,ugm-3 (GRAV EQ),80,R,ugm-3
18-01-2005,01:00,4,R,ugm-3 (GRAV EQ),76,R,ugm-3
18-01-2005,02:00,4,R,ugm-3 (GRAV EQ),76,R,ugm-3
18-01-2005,03:00,7,R,ugm-3 (GRAV EQ),76,R,ugm-3
18-01-2005,04:00,9,R,ugm-3 (GRAV EQ),72,R,ugm-3
18-01-2005,05:00,8,R,ugm-3 (GRAV EQ),72,R,ugm-3
18-01-2005,06:00,9,R,ugm-3 (GRAV EQ),70,R,ugm-3
18-01-2005,07:00,8,R,ugm-3 (GRAV EQ),68,R,ugm-3
18-01-2005,08:00,13,R,ugm-3 (GRAV EQ),74,R,ugm-3
18-01-2005,09:00,22,R,ugm-3 (GRAV EQ),78,R,ugm-3
18-01-2005,10:00,33,R,ugm-3 (GRAV EQ),78,R,ugm-3
18-01-2005,11:00,27,R,ugm-3 (GRAV EQ),80,R,ugm-3
18-01-2005,12:00,22,R,ugm-3 (GRAV EQ),80,R,ugm-3
18-01-2005,13:00,25,R,ugm-3 (GRAV EQ),80,R,ugm-3
18-01-2005,14:00,26,R,ugm-3 (GRAV EQ),80,R,ugm-3
18-01-2005,15:00,16,R,ugm-3 (GRAV EQ),76,R,ugm-3
18-01-2005,16:00,16,R,ugm-3 (GRAV EQ),76,R,ugm-3
18-01-2005,17:00,21,R,ugm-3 (GRAV EQ),78,R,ugm-3
18-01-2005,18:00,27,R,ugm-3 (GRAV EQ),80,R,ugm-3
18-01-2005,19:00,21,R,ugm-3 (GRAV EQ),84,R,ugm-3
18-01-2005,20:00,21,R,ugm-3 (GRAV EQ),84,R,ugm-3
18-01-2005,21:00,17,R,ugm-3 (GRAV EQ),84,R,ugm-3
18-01-2005,22:00,18,R,ugm-3 (GRAV EQ),80,R,ugm-3
18-01-2005,23:00,16,R,ugm-3 (GRAV EQ),80,R,ugm-3
18-01-2005,24:00,14,R,ugm-3 (GRAV EQ),78,R,ugm-3
19-01-2005,01:00,14,R,ugm-3 (GRAV EQ),82,R,ugm-3
19-01-2005,02:00,13,R,ugm-3 (GRAV EQ),80,R,ugm-3
19-01-2005,03:00,12,R,ugm-3 (GRAV EQ),80,R,ugm-3
19-01-2005,04:00,10,R,ugm-3 (GRAV EQ),80,R,ugm-3
19-01-2005,05:00,8,R,ugm-3 (GRAV EQ),80,R,ugm-3
19-01-2005,06:00,10,R,ugm-3 (GRAV EQ),78,R,ugm-3
19-01-2005,07:00,12,R,ugm-3 (GRAV EQ),76,R,ugm-3
19-01-2005,08:00,8,R,ugm-3 (GRAV EQ),72,R,ugm-3
19-01-2005,09:00,3,R,ugm-3 (GRAV EQ),68,R,ugm-3
19-01-2005,10:00,12,R,ugm-3 (GRAV EQ),74,R,ugm-3
19-01-2005,11:00,12,R,ugm-3 (GRAV EQ),74,R,ugm-3
19-01-2005,12:00,7,R,ugm-3 (GRAV EQ),74,R,ugm-3
19-01-2005,13:00,7,R,ugm-3 (GRAV EQ),74,R,ugm-3
19-01-2005,14:00,9,R,ugm-3 (GRAV EQ),76,R,ugm-3
19-01-2005,15:00,9,R,ugm-3 (GRAV EQ),74,R,ugm-3
19-01-2005,16:00,8,R,ugm-3 (GRAV EQ),76,R,ugm-3
19-01-2005,17:00,10,R,ugm-3 (GRAV EQ),76,R,ugm-3
19-01-2005,18:00,17,R,ugm-3 (GRAV EQ),78,R,ugm-3
19-01-2005,19:00,22,R,ugm-3 (GRAV EQ),78,R,ugm-3
19-01-2005,20:00,27,R,ugm-3 (GRAV EQ),78,R,ugm-3
19-01-2005,21:00,29,R,ugm-3 (GRAV EQ),80,R,ugm-3
19-01-2005,22:00,30,R,ugm-3 (GRAV EQ),80,R,ugm-3
19-01-2005,23:00,29,R,ugm-3 (GRAV EQ),80,R,ugm-3
19-01-2005,24:00,25,R,ugm-3 (GRAV EQ),80,R,ugm-3
20-01-2005,01:00,25,R,ugm-3 (GRAV EQ),80,R,ugm-3
20-01-2005,02:00,22,R,ugm-3 (GRAV EQ),80,R,ugm-3
20-01-2005,03:00,22,R,ugm-3 (GRAV EQ),82,R,ugm-3
20-01-2005,04:00,26,R,ugm-3 (GRAV EQ),82,R,ugm-3
20-01-2005,05:00,12,R,ugm-3 (GRAV EQ),84,R,ugm-3
20-01-2005,06:00,5,R,ugm-3 (GRAV EQ),86,R,ugm-3
20-01-2005,07:00,5,R,ugm-3 (GRAV EQ),82,R,ugm-3
20-01-2005,08:00,3,R,ugm-3 (GRAV EQ),84,R,ugm-3
20-01-2005,09:00,3,R,ugm-3 (GRAV EQ),86,R,ugm-3
20-01-2005,10:00,7,R,ugm-3 (GRAV EQ),86,R,ugm-3
20-01-2005,11:00,9,R,ugm-3 (GRAV EQ),88,R,ugm-3
20-01-2005,12:00,-1,R,ugm-3 (GRAV EQ),88,R,ugm-3
20-01-2005,13:00,1,R,ugm-3 (GRAV EQ),88,R,ugm-3
20-01-2005,14:00,3,R,ugm-3 (GRAV EQ),88,R,ugm-3
20-01-2005,15:00,4,R,ugm-3 (GRAV EQ),90,R,ugm-3
20-01-2005,16:00,7,R,ugm-3 (GRAV EQ),88,R,ugm-3
20-01-2005,17:00,8,R,ugm-3 (GRAV EQ),86,R,ugm-3
20-01-2005,18:00,12,R,ugm-3 (GRAV EQ),84,R,ugm-3
20-01-2005,19:00,14,R,ugm-3 (GRAV EQ),84,R,ugm-3
20-01-2005,20:00,13,R,ugm-3 (GRAV EQ),84,R,ugm-3
20-01-2005,21:00,14,R,ugm-3 (GRAV EQ),84,R,ugm-3
20-01-2005,22:00,13,R,ugm-3 (GRAV EQ),84,R,ugm-3
20-01-2005,23:00,13,R,ugm-3 (GRAV EQ),82,R,ugm-3
20-01-2005,24:00,16,R,ugm-3 (GRAV EQ),82,R,ugm-3
21-01-2005,01:00,17,R,ugm-3 (GRAV EQ),82,R,ugm-3
21-01-2005,02:00,18,R,ugm-3 (GRAV EQ),80,R,ugm-3
21-01-2005,03:00,16,R,ugm-3 (GRAV EQ),80,R,ugm-3
21-01-2005,04:00,14,R,ugm-3 (GRAV EQ),82,R,ugm-3
21-01-2005,05:00,16,R,ugm-3 (GRAV EQ),78,R,ugm-3
21-01-2005,06:00,17,R,ugm-3 (GRAV EQ),76,R,ugm-3
21-01-2005,07:00,13,R,ugm-3 (GRAV EQ),68,R,ugm-3
21-01-2005,08:00,12,R,ugm-3 (GRAV EQ),46,R,ugm-3
21-01-2005,09:00,21,R,ugm-3 (GRAV EQ),56,R,ugm-3
21-01-2005,10:00,17,R,ugm-3 (GRAV EQ),70,R,ugm-3
21-01-2005,11:00,13,R,ugm-3 (GRAV EQ),74,R,ugm-3